Location: *
(37.5724°S, 58.0067°E)
Time: 09:09:03
(UTC+00:00)

Cosmos 1980 - Pass Details

Date: 25 January 2021
Orbit: 840 x 846 km, 71.0° (Epoch: 07 March)

Event Time Altitude Azimuth Distance (km) Brightness Sun altitude
Rises 22:52:21 0° 207° (SSW) 3,439 7.2 -23.3°
Reaches altitude 10° 22:54:52 10° 211° (SSW) 2,496 6.4 -23.0°
Maximum altitude 23:00:27 56° 287° (WNW) 1,010 3.7 -22.3°
Enters shadow 23:01:32 48° 327° (NNW) 1,103 3.8 -22.2°
